[[{"header":{"parameterUnit":"m.s-1","parameterCategory":1,"la1":30.2991,"la2":30.254,"lo1":-89.0895,"lo2":-89.0444,"dy":0.0017,"dx":0.0017,"nx":28,"ny":28,"refTime":"2026-02-26T03:00:00:Z","depth":0,"parameterNumber":2,"parameterNumberName":"U-component_of_WINDS"},"data":[0,0,0,0,0,0,0,0,0,0,0,0,0,0,0,0,0,0,0,0,0,0,0,0,0,0,0,0,0,0,0,0,0,0,0,0,0,0,0,0,0,0,0,0,0,0,0,0,0,0,0,0,0,0,0,0,0,0,0.6346,0.6345,0,0.629,0.629,0.6289,0.6246,0.6246,0.6245,0.6245,0.619,0.6189,0.6188,0,0,0,0,0,0,0,0,0,0,0,0,0,0.642,0.6419,0.6346,0.6345,0.6345,0.629,0.629,0.6289,0.6246,0.6246,0.6245,0.6245,0.6191,0.619,0.6188,0,0,0,0,0,0,0,0,0,0,0,0,0,0.6378,0.6418,0.6346,0.6317,0.6314,0.629,0.6289,0.6289,0.6246,0.6246,0.6245,0.6244,0.6191,0.619,0.6188,0.6191,0,0,0.6183,0.6183,0,0,0,0,0,0,0,0,0.6381,0.6376,0.6322,0.6319,0.6315,0.6274,0.6296,0.6256,0.6246,0.6272,0.6245,0.6244,0.6219,0.6215,0.6206,0.6188,0.6186,0.6183,0.6182,0.6181,0.6181,0,0,0,0,0,0,0,0.6384,0.6378,0.6324,0.6321,0.6317,0.6308,0.6301,0.6288,0.625,0.627,0.6266,0.626,0.6217,0.6208,0.6205,0.6185,0.6183,0.6182,0.6181,0.618,0.6169,0.6169,0,0,0,0,0,0,0.6391,0.6381,0.6326,0.6322,0.6347,0.6307,0.63,0.6288,0.625,0.6243,0.6261,0.6258,0.6211,0.6206,0.6202,0.6204,0.6181,0.618,0.6179,0.6168,0.6169,0.6169,0,0,0,0,0,0,0.6392,0.6386,0.6328,0.6351,0.6342,0.6306,0.6294,0.6287,0.6278,0.6243,0.6236,0.6258,0.621,0.6205,0.6194,0.6202,0.6179,0.6178,0.6167,0.6168,0.6169,0.6208,0,0,0,0,0,0,0.6395,0.6387,0.6387,0.6351,0.6341,0.632,0.6294,0.6287,0.6275,0.6271,0.6239,0.6233,0.6209,0.6197,0.6193,0.6199,0.6176,0.6166,0.6168,0.6169,0.6206,0.621,0.6214,0,0,0,0,0,0.6398,0.64,0.6387,0.638,0.634,0.632,0.6315,0.6287,0.6276,0.6276,0.6254,0.6234,0.6202,0.6196,0.6191,0.6197,0.6166,0.6167,0.6169,0.6204,0.6209,0.6213,0,0,0,0,0,0,0.6437,0.6394,0.638,0.637,0.6349,0.6313,0.6312,0.6293,0.6276,0.6273,0.624,0.6233,0.6227,0.6211,0.6206,0.6199,0.6181,0.6182,0.621,0.6214,0.6218,0.6223,0.6175,0,0,0,0,0,0.6445,0.6432,0.6395,0.639,0.638,0.6348,0.6338,0.6319,0.6296,0.6288,0.6265,0.6244,0.623,0.6221,0.6206,0.6203,0.6196,0.6205,0.6209,0.6212,0.6214,0.6213,0.6217,0.6174,0.6174,0.6174,0,0,0.6461,0.6436,0.6429,0.6398,0.6379,0.6368,0.6341,0.6329,0.6321,0.6286,0.6275,0.6258,0.6233,0.6227,0.6223,0.6214,0.6224,0.6214,0.6217,0.6217,0.6215,0.622,0.6223,0.6175,0.6175,0.6175,0,0,0.6484,0.6462,0.6457,0.6439,0.6412,0.6391,0.639,0.6357,0.6344,0.6332,0.6306,0.6296,0.6272,0.6256,0.6245,0.6264,0.6246,0.626,0.6281,0.6281,0.6285,0.6288,0.6297,0.63,0.6261,0.6261,0.6261,0,0.6507,0.6487,0.6457,0.6447,0.6435,0.6403,0.6399,0.6383,0.6352,0.6345,0.6335,0.6304,0.6285,0.6276,0.6281,0.6272,0.6272,0.6264,0.6286,0.6289,0.6291,0.63,0.6303,0.6263,0.6263,0.6263,0.6263,0,0.6518,0.6505,0.6505,0.6476,0.6463,0.6456,0.6427,0.6418,0.64,0.6381,0.6371,0.6347,0.6327,0.6324,0.6306,0.6313,0.6308,0.6292,0.6274,0.6298,0.6305,0.6308,0.6266,0.6265,0.6265,0.6264,0,0,0.6564,0.652,0.652,0.6508,0.6476,0.6466,0.6458,0.6439,0.6433,0.6413,0.6408,0.6388,0.6374,0.6362,0.6342,0.6342,0.6362,0.6327,0.6326,0.6336,0.6371,0.6384,0.6388,0.6349,0.635,0.635,0.6373,0,0.6583,0.6567,0.6541,0.6534,0.6523,0.6493,0.6487,0.6468,0.645,0.6439,0.642,0.6408,0.6389,0.6381,0.638,0.636,0.6369,0.6357,0.6345,0.6345,0.6354,0.6391,0.6404,0.6428,0.6376,0.6376,0.6376,0,0.6603,0.6585,0.6578,0.6549,0.6543,0.6538,0.6519,0.6508,0.6487,0.6474,0.6461,0.644,0.6433,0.6416,0.6406,0.6399,0.6393,0.6383,0.6383,0.6382,0.6363,0.6393,0.6434,0.6438,0.638,0.638,0.638,0,0.664,0.6614,0.6606,0.6596,0.6562,0.656,0.6545,0.6523,0.6514,0.6498,0.6492,0.6475,0.6466,0.6455,0.6431,0.642,0.6425,0.6405,0.6416,0.6417,0.6419,0.6419,0.6462,0.6412,0.6412,0.6412,0.6412,0,0.6664,0.6661,0.6623,0.6618,0.6615,0.6585,0.6583,0.6566,0.6547,0.654,0.6513,0.6508,0.6476,0.6467,0.6448,0.6445,0.644,0.6431,0.6427,0.6435,0.6436,0.6431,0.6429,0.6413,0.6413,0.6413,0.6413,0,0.6705,0.6678,0.6669,0.6637,0.663,0.6629,0.6603,0.6598,0.6579,0.6571,0.6568,0.6538,0.6527,0.6502,0.6483,0.6471,0.6473,0.6463,0.648,0.6477,0.649,0.649,0.6532,0.6537,0.6483,0.6483,0.6484,0,0.6723,0.672,0.6689,0.6682,0.6669,0.6658,0.6649,0.662,0.6612,0.6589,0.6588,0.6574,0.6562,0.6545,0.6523,0.651,0.6501,0.6516,0.6499,0.6508,0.6503,0.6505,0.6505,0.6521,0.6521,0.6522,0.6522,0,0.6759,0.6746,0.6733,0.6717,0.6707,0.6692,0.6676,0.6673,0.6641,0.6633,0.6621,0.6612,0.6593,0.6581,0.6565,0.6551,0.6533,0.6528,0.653,0.6539,0.655,0.6547,0.6492,0.6528,0.6527,0.6527,0.6526,0.6526,0.6789,0.6787,0.6765,0.6752,0.6737,0.6724,0.6719,0.67,0.6689,0.6672,0.6656,0.6646,0.6627,0.6603,0.6591,0.6584,0.6574,0.6577,0.6578,0.658,0.6584,0.655,0.6581,0.6581,0.658,0.658,0.658,0,0.6826,0.6811,0.6799,0.6778,0.6769,0.6752,0.6734,0.6728,0.6719,0.6703,0.6692,0.6679,0.6668,0.6645,0.6632,0.6631,0.6622,0.6629,0.6629,0.6627,0.6592,0.6593,0.6636,0.6636,0.6636,0.6636,0.6636,0.6636,0.6843,0.6838,0.6824,0.6812,0.6797,0.6787,0.6779,0.6767,0.6754,0.6741,0.6732,0.6717,0.6699,0.6684,0.6674,0.6668,0.6665,0.6675,0.6666,0.6634,0.6629,0.6624,0.6625,0.6674,0.6674,0.6702,0.6702,0.6702]},{"header":{"parameterUnit":"m.s-1","parameterCategory":1,"la1":30.2991,"la2":30.254,"lo1":-89.0895,"lo2":-89.0444,"dy":0.0017,"dx":0.0017,"nx":28,"ny":28,"refTime":"2026-02-26T03:00:00:Z","depth":0,"parameterNumber":3,"parameterNumberName":"V-component_of_WINDS"},"data":[0,0,0,0,0,0,0,0,0,0,0,0,0,0,0,0,0,0,0,0,0,0,0,0,0,0,0,0,0,0,0,0,0,0,0,0,0,0,0,0,0,0,0,0,0,0,0,0,0,0,0,0,0,0,0,0,0,0,1.935,1.935,0,1.94,1.94,1.9401,1.9398,1.9397,1.9396,1.9395,1.9448,1.945,1.9452,0,0,0,0,0,0,0,0,0,0,0,0,0,1.9253,1.9255,1.935,1.935,1.9351,1.94,1.94,1.9401,1.9398,1.9397,1.9396,1.9395,1.9447,1.945,1.9452,0,0,0,0,0,0,0,0,0,0,0,0,0,1.9298,1.9255,1.935,1.9355,1.9356,1.94,1.9401,1.9401,1.9398,1.9397,1.9396,1.9395,1.9447,1.945,1.9453,1.9494,0,0,1.9462,1.9464,0,0,0,0,0,0,0,0,1.9296,1.9302,1.9354,1.9355,1.9356,1.9391,1.9386,1.9433,1.9398,1.9382,1.9395,1.9394,1.943,1.9435,1.9446,1.9497,1.9499,1.9463,1.9464,1.9466,1.9467,0,0,0,0,0,0,0,1.9293,1.93,1.937,1.9354,1.9356,1.9356,1.9361,1.9395,1.9412,1.9383,1.9383,1.9389,1.9431,1.9443,1.9448,1.95,1.9462,1.9465,1.9467,1.9468,1.9589,1.959,0,0,0,0,0,0,1.9288,1.9297,1.9368,1.9371,1.9322,1.9358,1.9364,1.9381,1.9411,1.9415,1.939,1.9389,1.9439,1.9444,1.945,1.9502,1.9466,1.9469,1.9471,1.9588,1.9589,1.9591,0,0,0,0,0,0,1.9286,1.9294,1.9366,1.9334,1.9343,1.9361,1.938,1.9383,1.9396,1.9416,1.942,1.94,1.9438,1.9445,1.9484,1.9503,1.947,1.9473,1.9586,1.9588,1.959,1.9606,0,0,0,0,0,0,1.9283,1.9294,1.9309,1.9334,1.9345,1.9399,1.9381,1.9384,1.9401,1.94,1.9427,1.943,1.9438,1.9479,1.9487,1.9507,1.9475,1.9584,1.9587,1.9589,1.9604,1.9608,1.9612,0,0,0,0,0,1.928,1.9311,1.931,1.9318,1.9365,1.94,1.9406,1.9414,1.9402,1.9419,1.9432,1.9429,1.95,1.9483,1.9492,1.9513,1.9583,1.9586,1.9589,1.9602,1.9607,1.9612,0,0,0,0,0,0,1.9288,1.9315,1.9313,1.9354,1.9375,1.9399,1.942,1.9419,1.9443,1.9441,1.945,1.9456,1.9496,1.9508,1.9489,1.9556,1.954,1.9545,1.9547,1.9552,1.9556,1.9553,1.9478,0,0,0,0,0,1.9294,1.932,1.9342,1.9376,1.9387,1.9401,1.9417,1.9421,1.9443,1.9452,1.9468,1.949,1.9518,1.9535,1.9561,1.9605,1.9612,1.9624,1.9629,1.9632,1.9636,1.9662,1.9668,1.96,1.96,1.96,0,0,1.9308,1.9326,1.9342,1.9378,1.9395,1.9422,1.9409,1.9438,1.9459,1.9457,1.9494,1.9507,1.9532,1.9574,1.9593,1.9586,1.9657,1.9636,1.9638,1.9641,1.9666,1.9672,1.9678,1.9602,1.9602,1.9602,0,0,1.9347,1.9363,1.9393,1.9411,1.9436,1.9446,1.9453,1.9478,1.9486,1.9524,1.9524,1.9549,1.9595,1.9614,1.9629,1.9677,1.9675,1.9685,1.9707,1.9732,1.9737,1.9742,1.9761,1.9767,1.9689,1.9689,1.9689,0,1.9361,1.9402,1.9409,1.9439,1.9456,1.9455,1.9487,1.9503,1.9536,1.9548,1.9539,1.9598,1.9615,1.9662,1.9674,1.9686,1.9695,1.9682,1.9736,1.9741,1.9745,1.9763,1.977,1.969,1.969,1.969,1.969,0,1.9419,1.9447,1.9469,1.9501,1.952,1.9551,1.9564,1.9582,1.9585,1.9596,1.9636,1.9656,1.9687,1.9698,1.9701,1.9746,1.9741,1.9734,1.9718,1.9753,1.977,1.9777,1.9692,1.9691,1.9691,1.9691,0,0,1.9465,1.9501,1.9509,1.9524,1.9552,1.9575,1.9606,1.9636,1.9653,1.9675,1.9703,1.9743,1.9737,1.9754,1.9759,1.9781,1.982,1.9772,1.9772,1.9781,1.9872,1.9878,1.9886,1.9819,1.982,1.9821,1.9871,0,1.9508,1.9563,1.9571,1.962,1.9647,1.9648,1.9675,1.9696,1.9707,1.9733,1.9745,1.9774,1.9763,1.9774,1.9796,1.981,1.9838,1.9807,1.9845,1.9847,1.984,1.9895,1.9901,1.9947,1.9877,1.9878,1.9879,0,1.9565,1.959,1.9642,1.9668,1.968,1.9704,1.9734,1.9757,1.9782,1.9789,1.9809,1.9812,1.9845,1.9827,1.9875,1.9853,1.9869,1.9879,1.9881,1.9886,1.9866,1.9902,1.9962,1.9969,1.9889,1.9889,1.9888,0,1.9596,1.9642,1.9679,1.9692,1.9723,1.974,1.9754,1.9777,1.9795,1.9821,1.9833,1.9862,1.9879,1.9902,1.9913,1.9898,1.996,1.9942,1.9968,1.9968,1.9981,1.998,2.0045,1.999,1.999,1.9989,1.9989,0,1.9644,1.9676,1.9693,1.9716,1.9753,1.9762,1.9798,1.9811,1.9832,1.9859,1.986,1.9885,1.9898,1.9925,1.9934,1.9973,1.998,1.9987,1.9989,1.9988,1.9987,1.9999,1.9997,1.9991,1.9991,1.999,1.999,0,1.9683,1.9696,1.9737,1.9764,1.9771,1.9797,1.982,1.9843,1.9854,1.9888,1.9896,1.9915,1.9947,1.996,1.9999,2.0005,2.0051,2.0049,2.0042,2.0043,2.0068,2.0066,2.0144,2.0156,2.0091,2.0092,2.0092,0,1.9714,1.9739,1.9768,1.9786,1.98,1.9829,1.9848,1.9858,1.9878,1.9908,1.9928,1.996,1.9986,2.0038,2.0055,2.0086,2.0086,2.0112,2.0091,2.0089,2.0089,2.0088,2.0091,2.0116,2.0116,2.0117,2.0117,0,1.9767,1.9772,1.9799,1.9829,1.9851,1.9875,1.9898,1.9913,1.9927,1.9949,1.9983,2.0003,2.0044,2.0076,2.0108,2.0123,2.0123,2.0124,2.0131,2.0131,2.0126,2.0131,2.0054,2.0122,2.0122,2.0121,2.0121,2.0121,1.9804,1.9827,1.9851,1.9882,1.99,1.9922,1.9946,1.9961,1.9988,2.0022,2.0027,2.0063,2.0088,2.013,2.0147,2.0176,2.0169,2.018,2.0183,2.0186,2.0188,2.0121,2.0181,2.0181,2.0181,2.0181,2.0181,0,1.9858,1.9874,1.9902,1.9935,1.996,1.9957,1.9983,2.0004,2.0035,2.0059,2.0085,2.0124,2.0155,2.0175,2.0208,2.0227,2.0228,2.0235,2.0235,2.0239,2.0191,2.0182,2.0234,2.0234,2.0234,2.0234,2.0234,2.0234,1.989,1.9929,1.9937,1.9986,2.0002,2.0037,2.0052,2.0073,2.0092,2.0135,2.0162,2.0175,2.0197,2.0231,2.0261,2.0266,2.0279,2.0287,2.0292,2.0247,2.0242,2.0236,2.0228,2.0289,2.0289,2.0337,2.0337,2.0338]}]]